Theta_e
325 325 325 325 326 328 329 330 329 328 328 325 325 324 325 324 323 314 305 313 314 321 319 309 307 307 308 305 305 304 294 292 293 295 296 300 298 300 300 301 302 306 307 316 326
324 324 325 326 326 327 329 329 328 327 327 326 325 325 326 324 312 308 317 327 325 326 309 306 303 304 302 303 302 296 295 297 300 299 297 299 299 299 297 298 300 307 321 325 326
323 323 324 325 325 326 327 328 326 325 326 326 325 326 324 319 302 304 324 327 330 322 311 309 307 304 299 301 300 298 295 299 299 300 302 299 298 299 297 294 300 304 317 322 322
322 323 323 324 325 325 326 327 326 325 325 326 325 324 322 309 293 307 325 327 329 318 309 307 304 298 298 297 301 295 300 298 300 301 300 299 300 297 298 299 303 308 320 320 320
321 321 322 322 324 325 326 327 326 324 325 326 324 322 311 299 299 311 326 326 323 314 306 303 301 299 296 298 299 296 297 299 300 300 299 301 297 298 297 298 303 310 319 318 319
320 320 321 322 323 324 326 326 326 326 326 325 323 321 304 294 308 317 317 316 317 309 305 304 302 303 299 297 297 298 297 297 298 297 297 298 295 297 298 299 304 312 314 317 318
319 320 320 321 322 323 324 325 325 325 325 325 323 312 301 299 308 316 317 314 314 307 304 306 305 301 299 296 300 298 294 295 295 296 295 297 294 294 295 298 299 301 304 312 315
319 319 319 320 321 322 323 324 323 323 324 324 322 308 296 309 309 312 311 308 309 308 308 309 306 302 299 300 296 294 292 289 292 296 296 295 290 296 296 296 296 297 297 300 306
318 318 319 319 320 321 321 322 322 323 323 323 310 302 296 311 305 310 310 306 306 306 306 307 304 298 298 292 288 289 284 287 290 296 295 294 290 294 295 295 294 294 294 296 298
318 318 319 319 319 320 320 320 321 320 318 314 309 295 300 298 304 308 309 307 303 302 300 301 298 294 291 290 283 284 284 287 288 293 293 290 290 292 294 295 295 295 294 294 296
317 318 318 319 320 320 318 312 302 301 305 298 298 296 298 302 305 303 306 303 302 298 291 296 290 288 290 291 291 289 288 286 287 293 292 291 290 292 294 293 292 293 295 294 295
317 318 318 319 320 319 313 300 300 302 295 302 301 300 302 302 297 300 304 297 296 291 294 291 287 293 294 294 292 290 287 285 288 292 290 289 289 292 293 293 294 295 295 295 294
317 317 318 318 318 313 305 302 307 305 293 296 300 299 299 301 296 296 301 297 294 290 291 288 291 295 294 291 291 288 287 285 286 288 288 285 285 288 293 294 294 295 295 296 296
317 317 317 318 311 308 303 308 306 302 285 290 293 297 300 300 294 300 301 297 293 290 291 290 293 293 291 290 290 286 290 290 288 285 280 283 278 283 287 290 292 294 294 295 295
316 316 317 317 309 303 305 308 307 298 274 291 293 302 301 294 294 295 299 295 291 291 291 288 289 290 289 291 292 288 291 289 288 286 282 281 279 284 285 286 291 292 293 293 295
316 316 316 312 310 308 309 308 301 285 276 287 292 293 293 293 293 295 294 295 295 291 291 290 292 291 291 291 292 293 290 289 286 283 278 280 280 279 284 289 287 290 292 295 295
315 315 313 312 304 310 310 302 283 276 290 285 286 293 290 288 290 290 289 287 286 284 283 287 288 290 292 289 291 290 286 279 277 276 276 279 279 283 287 288 292 292 294 294 294
315 314 312 311 311 310 304 290 271 281 285 290 289 291 286 289 288 289 287 284 288 287 285 282 281 287 291 289 286 287 286 280 274 274 276 280 278 284 289 289 291 294 295 295 296
314 310 307 309 311 309 295 282 277 284 289 288 288 285 284 287 288 287 284 286 288 288 284 283 283 290 290 291 290 286 284 289 281 273 276 279 282 288 290 289 291 293 294 293 295
308 305 304 310 312 303 290 281 287 292 292 290 283 285 280 284 284 284 284 288 288 290 289 287 282 288 288 290 289 288 290 283 283 273 272 277 278 281 287 288 289 291 292 293 294
306 298 303 312 308 296 284 283 289 295 293 289 286 284 284 284 284 284 285 288 291 290 290 288 286 284 287 286 285 285 284 285 285 282 275 274 278 285 287 289 289 290 292 293 294
296 288 301 309 292 289 283 288 294 293 297 293 291 288 286 286 285 285 285 288 293 291 287 289 286 281 283 287 288 287 286 286 281 279 280 279 280 288 288 291 291 291 293 293 294
287 289 297 303 285 286 287 290 293 292 294 293 291 292 290 287 283 287 288 292 292 291 289 290 284 278 281 285 287 285 286 286 285 282 278 276 279 289 289 290 291 292 293 294 294
289 285 288 296 289 289 286 287 287 294 294 296 293 292 289 287 290 287 288 293 293 292 295 295 286 283 279 282 285 283 285 286 286 279 279 280 282 287 289 291 292 293 294 294 294
289 285 289 287 286 289 290 289 287 288 293 295 292 292 289 285 287 287 290 291 293 294 292 290 281 283 285 286 286 284 285 286 285 287 282 286 284 287 289 290 293 293 294 294 293
285 286 289 292 289 289 290 287 288 289 291 290 291 293 293 288 288 286 289 289 287 290 288 289 275 281 279 285 284 282 285 286 287 287 286 284 284 289 291 291 293 294 294 294 294
291 292 291 290 289 288 287 287 289 291 291 294 294 291 290 292 293 294 294 294 292 289 287 286 281 276 272 282 282 279 283 284 285 286 287 283 289 289 288 290 291 293 294 294 294
Wind_Speed
27 25 22 21 19 20 17 19 20 19 16 16 16 13 11 9 6 1 4 5 6 6 5 2 1 3 3 1 2 2 3 4 6 6 6 5 5 3 1 7 5 4 4 8 12
26 25 24 21 19 18 18 21 20 19 17 17 16 12 12 9 1 5 6 11 10 11 3 3 4 2 5 3 2 3 1 5 4 6 6 7 7 7 5 5 4 6 8 9 11
25 25 24 22 21 18 19 22 21 19 18 17 16 12 11 7 1 8 15 10 11 9 6 2 2 2 4 3 4 2 4 5 5 3 11 9 5 3 9 2 7 12 11 9 7
26 24 24 22 21 19 19 23 21 19 16 16 16 14 11 3 6 1 20 17 12 6 6 2 3 2 3 5 4 2 7 3 4 5 5 10 8 5 5 6 7 13 16 9 9
25 24 24 22 22 20 20 23 22 20 17 17 16 15 7 3 7 4 15 16 9 8 8 12 10 4 3 6 1 5 3 1 2 5 4 8 5 5 5 4 6 12 14 10 9
25 23 23 22 20 22 21 22 23 21 18 19 17 12 4 4 6 4 10 11 7 7 6 5 7 3 5 3 7 3 2 2 2 2 3 7 2 4 5 6 9 12 10 10 11
25 24 24 21 21 22 23 22 20 19 19 19 15 4 1 10 2 6 9 10 6 6 4 2 2 4 2 3 6 6 5 1 2 4 2 3 1 6 4 6 10 10 8 9 11
26 24 24 22 22 21 20 22 21 19 18 18 14 2 6 5 5 7 3 3 3 2 5 0 6 3 4 1 3 8 6 5 3 7 1 2 6 8 7 10 9 9 8 9 10
25 25 24 22 22 23 23 22 20 18 18 17 5 4 7 2 8 9 7 8 7 4 3 7 3 4 1 3 1 5 6 5 2 6 5 5 5 3 8 9 9 8 9 9 8
26 26 27 24 23 26 27 24 22 18 12 6 3 2 5 6 5 7 6 10 5 7 6 6 4 4 2 6 11 7 5 4 6 7 2 6 6 3 4 7 10 8 7 9 9
27 27 28 27 29 31 27 17 10 5 7 8 10 6 3 4 6 5 6 7 6 4 7 6 6 18 14 3 4 2 6 6 2 5 6 9 6 10 8 5 8 9 8 8 10
28 28 27 29 31 28 17 8 7 13 8 8 5 6 2 4 6 6 8 8 8 7 7 6 14 7 8 7 9 4 7 5 2 2 2 4 10 9 7 8 9 10 9 9 5
30 30 30 32 30 18 12 10 11 17 8 4 5 11 4 3 6 12 13 5 9 7 7 8 6 8 10 7 12 6 5 5 6 3 1 2 7 6 9 7 7 9 7 7 10
32 32 31 33 18 15 6 4 8 3 6 6 7 7 4 4 3 4 8 7 6 15 8 6 4 17 6 9 7 6 4 8 11 6 4 3 6 7 7 10 8 11 9 8 7
33 33 33 27 15 16 8 4 7 5 7 12 6 5 8 8 8 3 3 2 9 8 7 5 7 8 5 12 7 4 4 7 5 5 5 1 2 9 1 5 9 10 9 7 7
33 33 36 7 10 15 9 6 6 4 5 7 8 9 9 4 2 5 5 1 4 6 6 3 2 2 7 2 5 7 6 9 6 4 0 5 7 7 3 6 3 4 6 9 8
33 33 24 10 14 13 9 4 6 6 5 8 7 10 11 7 4 5 8 5 8 10 5 3 1 1 3 8 6 5 6 3 3 2 7 2 4 10 6 4 6 7 8 7 7
34 31 10 3 14 12 5 5 6 6 8 3 8 14 9 9 2 7 8 7 7 6 7 7 3 6 3 6 9 6 6 7 8 5 5 2 7 8 4 1 2 7 9 8 7
36 11 6 3 15 8 11 12 10 8 7 9 7 15 5 6 9 6 8 12 8 8 8 6 1 2 2 1 8 6 4 6 8 3 4 5 6 11 3 2 6 8 7 8 8
12 12 7 7 13 8 9 7 6 4 10 14 7 7 7 11 6 7 12 9 6 9 2 5 6 2 2 1 1 5 6 4 2 5 3 4 5 7 6 9 7 7 8 8 7
10 10 5 11 7 6 13 9 4 2 13 8 8 8 9 10 7 8 14 3 12 6 5 4 5 3 1 5 8 4 3 2 5 6 7 3 8 8 5 7 13 12 10 10 9
4 6 6 14 13 6 9 9 4 4 5 4 5 6 11 10 6 9 12 5 9 10 10 2 7 4 5 1 3 3 6 6 6 5 2 4 7 2 3 6 8 9 8 8 8
4 4 3 8 14 15 6 5 3 4 4 2 4 2 6 9 6 5 6 2 2 10 12 8 0 5 4 3 2 5 4 3 6 4 6 7 8 2 4 3 5 9 8 7 7
5 8 3 4 1 18 11 6 5 3 4 5 4 3 7 8 2 9 4 1 2 3 9 8 2 8 10 7 8 6 7 7 6 3 4 9 5 5 6 6 6 7 8 9 9
2 2 1 20 11 21 17 9 7 6 1 4 3 2 6 6 4 6 4 3 4 1 5 7 9 4 5 3 6 6 11 14 11 22 10 21 11 7 8 10 9 8 8 9 9
3 4 1 14 13 20 19 15 15 5 6 5 6 4 2 6 6 9 10 5 6 1 5 1 1 3 4 5 2 2 8 15 22 16 14 1 10 7 7 5 7 12 13 12 12
2 1 4 11 15 16 18 12 16 12 4 4 12 7 6 2 5 4 4 6 8 10 7 8 7 4 5 2 4 7 14 12 10 7 18 13 16 7 4 6 9 10 12 14 12
Wind_Direction
189 185 182 185 194 184 170 168 165 160 163 160 158 156 146 143 134 169 215 200 164 133 51 280 284 232 55 321 27 49 37 228 236 178 186 181 112 21 115 99 54 33 124 161 150
188 185 177 179 187 182 170 170 159 157 153 163 165 162 140 149 94 248 256 173 171 153 108 146 159 170 111 195 12 108 118 239 243 156 196 154 123 140 97 110 61 58 51 120 136
188 185 176 176 179 181 176 172 157 158 153 157 164 149 138 155 67 237 208 207 183 168 143 149 314 170 133 132 153 222 205 298 341 326 147 141 117 166 121 169 180 160 160 147 148
186 180 174 175 176 176 177 170 158 159 151 145 137 135 146 128 186 330 178 196 195 173 119 40 300 188 133 147 164 249 241 291 326 334 124 141 136 147 153 198 203 164 162 152 165
183 175 167 174 175 171 173 168 154 156 159 138 139 145 124 99 253 300 178 189 151 147 171 167 205 176 160 119 305 204 270 81 325 17 100 113 139 166 146 165 110 140 153 164 171
179 172 165 169 173 168 166 164 156 153 146 139 150 161 122 175 236 163 170 157 156 158 182 156 181 190 160 218 181 214 186 185 131 43 35 112 166 124 208 148 111 149 167 171 180
173 169 160 165 169 166 159 150 148 145 138 143 158 181 148 218 182 139 150 179 165 180 149 164 61 71 209 204 207 143 129 203 192 168 127 96 85 206 166 160 145 162 182 192 193
168 166 156 164 162 156 144 137 135 133 137 145 159 211 233 212 191 119 153 137 185 230 126 50 326 305 200 224 132 158 132 169 229 160 152 126 245 228 179 158 180 189 201 200 214
165 159 154 155 156 149 142 125 122 129 131 130 116 176 248 99 146 161 170 162 146 157 125 114 199 222 231 171 125 198 182 169 194 214 134 162 223 212 166 163 184 198 209 213 216
163 156 148 151 151 138 126 118 122 116 128 148 157 136 260 195 154 162 154 131 146 113 80 152 239 217 231 179 206 168 160 153 178 211 169 161 246 190 200 172 194 209 224 216 208
161 153 152 152 142 134 123 124 122 116 211 175 166 233 170 147 96 146 151 142 119 127 162 200 181 206 215 159 267 182 172 175 179 200 142 201 199 226 226 208 211 222 224 222 208
156 151 152 149 143 142 142 165 169 135 130 260 177 213 22 132 116 164 132 152 145 172 162 161 212 186 185 205 228 225 187 189 345 22 139 182 247 239 214 211 202 205 220 226 204
154 151 152 147 144 143 160 160 142 124 135 210 182 201 196 118 154 181 154 182 149 180 184 159 197 202 187 181 225 203 189 195 165 166 321 36 300 240 238 217 197 220 210 209 204
155 152 149 147 145 154 202 161 175 97 104 192 190 197 148 180 151 152 186 161 171 188 173 171 191 190 181 207 159 185 211 157 142 126 196 138 270 278 237 222 205 217 205 193 148
155 152 153 156 132 167 171 106 117 55 127 174 181 144 153 160 145 216 143 174 176 163 141 197 162 151 162 201 151 190 139 138 130 95 87 225 69 268 9 207 215 217 197 189 167
154 156 151 154 136 171 114 126 69 105 204 176 144 162 137 141 142 130 148 211 162 105 52 138 241 140 167 76 135 135 84 41 53 78 328 226 153 282 234 226 201 212 172 154 133
155 154 152 149 161 161 127 111 97 145 161 170 167 162 149 142 125 151 157 193 164 134 139 104 31 241 176 85 6 140 89 47 25 9 221 342 162 246 253 236 183 180 154 151 132
150 151 131 116 145 152 102 112 121 194 176 142 135 138 152 136 61 172 131 192 250 122 139 153 200 187 189 156 170 172 163 152 172 189 231 339 221 248 246 161 167 140 146 136 134
144 142 123 162 147 157 150 184 188 172 151 120 81 147 132 171 136 150 189 192 204 183 150 139 155 339 44 104 150 199 191 152 106 24 73 219 287 308 177 113 84 126 140 147 143
143 138 138 152 141 147 160 183 180 190 124 136 142 171 156 165 129 166 170 200 209 184 111 178 108 341 309 245 45 156 161 87 18 128 241 279 272 238 216 210 187 178 175 175 153
132 134 174 150 104 159 185 193 168 30 135 144 157 159 161 167 140 176 182 236 188 172 116 123 100 280 202 210 172 149 174 152 119 143 160 181 256 222 258 189 191 200 189 169 165
127 123 176 159 162 175 173 171 119 137 53 122 119 123 158 151 128 177 186 227 175 151 149 142 115 142 202 268 297 315 179 153 155 205 175 144 271 249 268 294 185 177 170 164 158
83 98 7 187 176 179 149 159 108 132 140 125 109 115 137 143 130 161 159 335 42 157 158 181 142 95 12 352 290 222 214 145 117 80 200 136 255 323 296 145 176 156 156 150 148
119 128 52 167 86 166 169 157 110 21 101 85 103 103 102 151 85 170 133 20 28 131 137 103 118 163 182 189 139 189 200 191 141 126 168 222 207 208 224 185 154 139 146 155 162
53 140 2 175 186 171 178 154 127 137 73 133 56 155 139 124 110 139 116 124 33 51 106 140 189 137 21 104 135 170 188 184 196 221 182 239 205 212 202 198 185 159 161 166 178
117 137 87 151 132 166 179 182 170 128 139 164 139 156 137 138 179 172 134 162 176 159 135 82 221 101 25 350 80 145 201 196 211 217 245 142 273 200 204 113 164 185 177 190 194
343 156 97 152 152 168 189 156 175 125 21 111 130 103 84 102 76 79 83 107 152 155 148 132 129 101 228 319 77 306 213 193 215 205 218 219 238 168 181 188 196 199 196 202 189